Home > Weather > Nuuk > Past weeks

Flag for Greenland Weather for the Past 2 Weeks in Nuuk, Greenland

Now
18 °F

Partly cloudy.


Feels Like: 12 °F
Forecast: 21 / 28 °F
Wind: 3 mph from North

Location: Godthaab / Nuuk

Current Time: Feb 11, 2016 at 9:10:27 PM

Latest Report: Feb 11, 2016 at 7:50 PM


Visibility: N/A

Pressure: 29.50 "Hg

Humidity: 73%

Dew point: 10 °F

Location of NuukLocation

Historic Weather in Nuuk — Graph

°F

Nuuk Temperature Yesterday

Maximum temperature yesterday: 12 °F (at 11:50 AM)
Minimum temperature yesterday: 9 °F (at 12:50 AM)
Average temperature yesterday: 9 °F

High & Low Weather Summary for the Past Weeks

 TemperatureHumidityPressure
High36 °F (Feb 3, 1:50 PM)100% (Jan 28, 11:50 PM)30.04 "Hg (Jan 28, 11:50 PM)
Low3 °F (Jan 27, 6:50 PM)40% (Feb 3, 9:50 PM)28.85 "Hg (Jan 28, 12:50 PM)
Average16 °F76%29.50 "Hg
* Reported Jan 27 6:50 PM — Feb 11 6:50 PM, Nuuk, Weather by CustomWeather, © 2016

Note: Actual official high and low records may vary slightly from our data, if they occured in-between our weather recording intervals... More about our weather records

Advertising

Nuuk Weather History for the Previous 24 Hours

 ConditionsComfort  
Time TempWeatherWind HumidityBarometerVisibility
6:50 PM
Thu, Feb 11
18 °FPartly cloudy.2 mph73%29.50 "HgN/A
5:50 PM19 °FPartly cloudy.3 mph68%29.50 "HgN/A
4:50 PM16 °FPartly cloudy.5 mph79%29.50 "HgN/A
3:50 PM18 °FBroken clouds.2 mph73%29.50 "HgN/A
2:50 PM19 °FPartly sunny.1 mph63%29.50 "HgN/A
1:50 PM19 °FPartly sunny.10 mph63%29.50 "HgN/A
12:50 PM18 °FOvercast.6 mph68%29.53 "HgN/A
11:50 AM16 °FPartly sunny.12 mph79%29.53 "HgN/A
10:50 AM14 °FPartly sunny.12 mph73%29.53 "HgN/A
9:50 AM12 °FPartly sunny.12 mph79%29.53 "HgN/A
8:50 AM12 °FPartly sunny.10 mph73%29.53 "HgN/A
7:50 AM10 °FPassing clouds.13 mph85%29.53 "HgN/A
6:50 AM10 °FPassing clouds.15 mph85%29.50 "HgN/A
5:50 AM10 °FPassing clouds.16 mph85%29.50 "HgN/A
4:50 AM10 °FPassing clouds.15 mph85%29.53 "HgN/A
3:50 AM10 °FLight snow. Passing clouds.18 mph85%29.53 "Hg4 mi
2:50 AM10 °FLight snow. Passing clouds.21 mph85%29.56 "Hg1 mi
1:50 AM9 °FLight snow. Overcast.18 mph92%29.59 "Hg2 mi
12:50 AM9 °FPassing clouds.17 mph92%29.62 "HgN/A
11:50 PM
Wed, Feb 10
9 °FPassing clouds.15 mph85%29.65 "HgN/A
10:50 PM9 °FPassing clouds.17 mph85%29.68 "HgN/A
9:50 PM9 °FSnow flurries. Passing clouds.17 mph85%29.71 "HgN/A
Weather by CustomWeather, © 2016

See weather overviewHow to use our weather pages